DL0GY-13 Weather Reports


Display with metric or nautical units.
time (UTC)temp
F
wind
direction
speed
MPH
gust
MPH
rain 1hr
in
rain 24hr
in
rain mn
in
humidity
%
barometer
mb
20200329190827 38 90 0.0 0.0 0.00 0.02 0.00 60 1033.2
20200329185827 38 90 0.0 0.0 0.00 0.02 0.00 60 1033.0
20200329184827 39 90 0.0 0.0 0.00 0.02 0.00 61 1032.8
20200329182827 39 90 0.0 0.0 0.00 0.02 0.00 64 1032.4
20200329181827 39 90 0.0 0.0 0.00 0.02 0.00 64 1032.3
20200329180827 39 90 0.0 0.0 0.00 0.02 0.00 64 1032.0
20200329175827 39 22 0.0 0.0 0.00 0.02 0.00 64 1032.0
20200329174827 40 90 0.0 0.0 0.00 0.02 0.00 64 1031.8
20200329173827 40 22 0.0 0.0 0.00 0.02 0.00 65 1031.9
20200329172827 40 22 0.0 0.0 0.00 0.02 0.00 66 1031.7
20200329171827 40 90 0.0 0.0 0.00 0.02 0.00 67 1031.5
20200329170827 40 90 0.0 0.0 0.00 0.02 0.00 67 1031.3
20200329165827 40 90 0.0 0.0 0.00 0.02 0.00 67 1031.2
20200329164827 40 22 0.0 0.0 0.00 0.02 0.00 68 1031.1
20200329163827 40 90 0.0 0.0 0.00 0.02 0.00 68 1030.8
20200329162827 40 90 0.0 0.0 0.00 0.02 0.00 69 1030.7
20200329161827 40 22 0.0 0.0 0.00 0.02 0.00 70 1030.7
20200329160827 40 90 0.0 0.0 0.00 0.02 0.00 71 1030.6
20200329155827 40 90 0.0 0.0 0.00 0.02 0.00 72 1030.4
20200329154827 40 90 0.0 0.0 0.00 0.02 0.00 75 1030.5
20200329153827 40 90 0.0 0.0 0.00 0.02 0.00 76 1030.4
20200329152827 40 90 0.0 0.0 0.00 0.02 0.00 78 1030.2
20200329151827 39 22 0.0 0.0 0.00 0.02 0.00 80 1030.0
20200329150828 39 90 0.0 0.0 0.02 0.02 0.00 81 1029.9
20200329145827 38 90 0.0 0.0 0.02 0.02 0.00 82 1030.0
20200329144828 38 90 0.0 0.0 0.02 0.02 0.00 82 1030.0
20200329143827 37 90 0.0 0.0 0.02 0.02 0.00 82 1030.0
20200329142827 37 90 0.0 0.0 0.02 0.02 0.00 82 1030.0
20200329141827 37 22 0.0 0.0 0.00 0.00 0.00 81 1029.9
20200329140827 37 22 0.0 0.0 0.00 0.00 0.00 81 1029.8
20200329135827 37 22 0.0 0.0 0.00 0.00 0.00 81 1029.8
20200329134827 37 22 0.0 0.0 0.00 0.00 0.00 81 1029.9
20200329133827 37 292 0.0 0.0 0.00 0.00 0.00 81 1029.6
20200329132827 37 90 0.0 0.0 0.00 0.00 0.00 80 1029.6
20200329131827 37 22 0.0 0.0 0.00 0.00 0.00 80 1029.5
20200329130827 37 22 0.0 0.0 0.00 0.00 0.00 80 1029.5
20200329123827 37 90 0.0 0.0 0.00 0.00 0.00 79 1029.2
20200329122827 37 90 0.0 0.0 0.00 0.00 0.00 79 1029.2
20200329121828 37 90 0.0 0.0 0.00 0.00 0.00 78 1029.1
20200329120828 38 90 0.0 0.0 0.00 0.00 0.00 78 1029.0
20200329115827 38 22 0.0 0.0 0.00 0.00 0.00 78 1028.9
20200329114827 37 90 0.0 0.0 0.00 0.00 0.00 78 1028.7
20200329113827 37 22 0.0 0.0 0.00 0.00 0.00 78 1028.6
20200329112827 37 0 0.0 0.0 0.00 0.00 0.00 78 1028.7
20200329111827 37 90 0.0 0.0 0.00 0.00 0.00 77 1028.6
20200329110827 38 22 0.0 0.0 0.00 0.00 0.00 77 1028.6
20200329105827 38 0 0.0 0.0 0.00 0.00 0.00 76 1028.6
20200329103827 38 0 0.0 0.0 0.00 0.00 0.00 74 1028.3
20200329102828 39 0 0.0 0.0 0.00 0.00 0.00 73 1028.1
20200329101827 39 90 0.0 0.0 0.00 0.00 0.00 71 1028.2
20200329100827 39 90 0.0 0.0 0.00 0.00 0.00 71 1028.2
20200329095827 40 22 0.0 0.0 0.00 0.00 0.00 70 1028.0
20200329094827 40 90 0.0 0.0 0.00 0.00 0.00 69 1027.9
20200329093827 40 90 0.0 0.0 0.00 0.00 0.00 69 1027.9
20200329092828 40 90 0.0 0.0 0.00 0.00 0.00 68 1027.9
20200329091827 40 90 0.0 0.0 0.00 0.00 0.00 67 1027.8
20200329090827 41 22 0.0 0.0 0.00 0.00 0.00 65 1027.6
20200329085827 41 90 0.0 0.0 0.00 0.00 0.00 65 1027.3
20200329084827 41 22 0.0 0.0 0.00 0.00 0.00 65 1027.3
20200329083827 41 0 0.0 0.0 0.00 0.00 0.00 65 1027.2
20200329082827 42 22 0.0 0.0 0.00 0.00 0.00 65 1027.3
20200329081827 42 22 0.0 0.0 0.00 0.00 0.00 67 1027.1
20200329080827 41 0 0.0 0.0 0.00 0.00 0.00 68 1026.9
20200329075827 40 22 0.0 0.0 0.00 0.00 0.00 70 1026.9
20200329074827 40 90 0.0 0.0 0.00 0.00 0.00 71 1026.8
20200329073827 39 22 0.0 0.0 0.00 0.00 0.00 72 1026.5
20200329072828 39 0 0.0 0.0 0.00 0.00 0.00 73 1026.5
20200329071827 38 22 0.0 0.0 0.00 0.00 0.00 74 1026.5
20200329070827 38 0 0.0 0.0 0.00 0.00 0.00 75 1026.5
20200329065828 38 90 0.0 0.0 0.00 0.00 0.00 75 1026.5
20200329064827 37 22 0.0 0.0 0.00 0.00 0.00 75 1026.3
20200329063827 37 22 0.0 0.0 0.00 0.00 0.00 75 1026.2
20200329062827 37 90 0.0 0.0 0.00 0.00 0.00 75 1025.9
20200329061827 37 22 0.0 0.0 0.00 0.00 0.00 75 1025.9
20200329060827 37 0 0.0 0.0 0.00 0.00 0.00 75 1025.9
20200329055828 37 0 0.0 0.0 0.00 0.00 0.00 75 1025.7
20200329054828 37 22 0.0 0.0 0.00 0.00 0.00 75 1025.7
20200329053829 37 22 0.0 0.0 0.00 0.00 0.00 74 1025.6
20200329052827 37 22 0.0 0.0 0.00 0.00 0.00 74 1025.6
20200329051827 37 22 0.0 0.0 0.00 0.00 0.00 74 1025.5
20200329050828 37 22 0.0 0.0 0.00 0.00 0.00 74 1025.4
20200329045827 38 22 0.0 0.0 0.00 0.00 0.00 74 1025.5
20200329044827 38 22 0.0 0.0 0.00 0.00 0.00 74 1025.5
20200329043828 38 22 0.0 0.0 0.00 0.00 0.00 74 1025.4
20200329042828 38 22 0.0 0.0 0.00 0.00 0.00 74 1025.2
20200329041828 38 22 0.0 0.0 0.00 0.00 0.00 73 1025.2
20200329040828 38 22 0.0 0.0 0.00 0.00 0.00 73 1025.3
20200329035827 38 22 0.0 0.0 0.00 0.00 0.00 73 1025.2
20200329034828 38 22 0.0 0.0 0.00 0.00 0.00 73 1025.2
20200329034129 38 0 0.0 0.0 0.00 0.00 0.00 73 1025.1
20200329033827 38 0 0.0 0.0 0.00 0.00 0.00 73 1025.1
20200329032828 37 0 0.0 0.0 0.00 0.00 0.00 73 1025.2
20200329031828 37 22 0.0 0.0 0.00 0.00 0.00 72 1025.1
20200329030827 37 0 0.0 0.0 0.00 0.00 0.00 72 1025.1
20200329025828 37 22 0.0 0.0 0.00 0.00 0.00 72 1025.2
20200329023828 37 0 0.0 0.0 0.00 0.00 0.00 71 1025.1
20200329022828 37 22 0.0 0.0 0.00 0.00 0.00 71 1025.2
20200329021828 37 0 0.0 0.0 0.00 0.00 0.00 71 1025.2
20200329020827 38 0 0.0 0.0 0.00 0.00 0.00 71 1025.2
20200329015828 38 0 0.0 0.0 0.00 0.00 0.00 71 1025.3
20200329014827 38 0 0.0 0.0 0.00 0.00 0.00 70 1025.2
20200329013827 38 0 0.0 0.0 0.00 0.00 0.00 70 1025.5
20200329012827 37 0 0.0 0.0 0.00 0.00 0.00 71 1025.4
20200329011827 37 22 0.0 0.0 0.00 0.00 0.00 70 1025.5
20200329010828 37 0 0.0 0.0 0.00 0.00 0.00 70 1025.6
20200329005827 38 0 0.0 0.0 0.00 0.00 0.00 70 1025.8
20200329004828 38 0 0.0 0.0 0.00 0.00 0.00 70 1025.8
20200329003828 38 0 0.0 0.0 0.00 0.00 0.00 70 1025.8
20200329002828 38 22 0.0 0.0 0.00 0.00 0.00 69 1025.9
20200329001827 39 22 0.0 0.0 0.00 0.00 0.00 69 1025.9
20200329000827 39 0 0.0 0.0 0.00 0.00 0.00 69 1025.9
20200328235828 39 22 0.0 0.0 0.00 0.00 0.00 69 1026.0
20200328234828 39 0 0.0 0.0 0.00 0.00 0.00 69 1026.1
20200328233828 39 22 0.0 0.0 0.00 0.00 0.00 69 1025.8
20200328232828 39 22 0.0 0.0 0.00 0.00 0.00 69 1025.9
20200328231828 40 90 0.0 0.0 0.00 0.00 0.00 69 1026.0
20200328230827 40 22 0.0 0.0 0.00 0.00 0.00 68 1025.7
20200328225828 40 22 0.0 0.0 0.00 0.00 0.00 68 1025.7
20200328224828 40 22 0.0 0.0 0.00 0.00 0.00 68 1025.8
20200328223828 41 22 0.0 0.0 0.00 0.00 0.00 68 1025.8
20200328222828 41 22 0.0 0.0 0.00 0.00 0.00 68 1025.6
20200328221827 41 22 0.0 0.0 0.00 0.00 0.00 68 1025.6
20200328220828 41 22 0.0 0.0 0.00 0.00 0.00 68 1025.6
20200328215828 41 22 0.0 0.0 0.00 0.00 0.00 67 1025.6
20200328214827 41 22 0.0 0.0 0.00 0.00 0.00 66 1025.8
20200328213828 41 22 0.0 0.0 0.00 0.00 0.00 65 1025.6
20200328212828 42 90 0.0 0.0 0.00 0.00 0.00 65 1025.6
20200328211828 42 22 0.0 0.0 0.00 0.00 0.00 64 1025.4
20200328210828 42 22 0.0 0.0 0.00 0.00 0.00 65 1025.3
20200328205828 43 22 0.0 0.0 0.00 0.00 0.00 65 1025.2
20200328204827 43 22 0.0 0.0 0.00 0.00 0.00 65 1025.0
20200328203828 43 22 0.0 0.0 0.00 0.00 0.00 65 1025.0
20200328202828 43 22 0.0 0.0 0.00 0.00 0.00 65 1025.0
20200328201828 44 22 0.0 0.0 0.00 0.00 0.00 64 1024.7
20200328200828 44 0 0.0 0.0 0.00 0.00 0.00 64 1024.7
20200328195828 45 22 0.0 0.0 0.00 0.00 0.00 64 1024.6
20200328194828 45 0 0.0 0.0 0.00 0.00 0.00 64 1024.3
20200328193828 45 22 0.0 0.0 0.00 0.00 0.00 64 1024.3
20200328192828 45 22 0.0 0.0 0.00 0.00 0.00 63 1024.2
20200328191828 46 90 0.0 0.0 0.00 0.00 0.00 62 1024.0